FENGYUN 1C DEB

Satellite information

Favourite Embed

Satellite Type and Status

DEBRISIN ORBIT

Key statistics

Satellite FENGYUN 1C DEB at a glance.

Uptime

9616

Days in orbit

Revolutions

≈ 14.4

Per day

Orbit

SSO

Sun Synchronous Orbit

Inclination

98.9

Latest

Satellite identification and parameters

Extended collection of information and parameters for FENGYUN 1C DEB.

Object identification

Identified? True

Debris? True

Object name: FENGYUN 1C DEB

International designator: 1999-025CRY

Object number (NORAD): 32130

Object ID (CCSDS): 32130

Country: PEOPLES REPUBLIC OF CHINA (PRC)

Current information (Y/N): Y

RCS size: SMALL

Orbital parameters

Period: 100.201 minutes

Inclination: 98.8987 deg

SMA: 7146.178 km

Apoapsis: 827.066 km

Periapsis: 709.02 km

RAAN: 49.1785 deg

Eccentricy: 0.0082594

Argument of periapsis: 266.007 deg

Mean anomaly: 93.167 deg

Mean motion: 14.37116691 rev/day

Mean motion (dot): 0.00002555 rev/day2

B* drag term: 0.00084237766 1/REarth

Two-line elements (TLE)

Creation date: Sept. 3, 2025, 10:15 a.m.

Reference frame: TEME

Reference center: EARTH

Epoch: Sept. 3, 2025, 4:22 a.m. UTC

TLE line 0: 0 FENGYUN 1C DEB

TLE line 1: 1 32130U 99025CRY 25246.18210084 .00002555 00000-0 84238-3 0 9992

TLE line 2: 2 32130 98.8987 49.1785 0082594 266.0070 93.1670 14.37116691947907

Live tracking on map

Real-time ground track for satellite FENGYUN 1C DEB.

In-orbit conjunctions

A list of the most updated potential collisions computed for object FENGYUN 1C DEB.

Target Orbit TCA Probability of collision Miss distance Type
CZ-6A DEB LEO 2025-07-30 00:54:02 0.0001792531 853.0 (m) DEBRIS
COSMOS 2251 DEB LEO 2025-02-18 20:07:08 0.0001084816 106.0 (m) DEBRIS
CZ-6A DEB LEO 2025-01-27 12:43:31 0.0001084458 195.0 (m) DEBRIS
COSMOS 304 LEO 2024-12-24 07:12:57 0.0002674951 259.0 (m) PAYLOAD

Associated space launch

Chinese polar orbiting meteorological satellite

FENGYUN 1C DEB was lifted into orbit during the mission ‘Long March 4B | Feng Yun 1C’, on board a Long March 4B space rocket.

The launch took place on May 10, 1999, 1:33 a.m. from Launch Complex 7.

For more information about the launch, click the button.

Launch to space Long March 4B | Feng Yun 1C
Long March 4B | Feng Yun 1C

Agency: N/A

Status: Launch Successful

Launch date: May 10, 1999, 1:33 a.m. UTC

Rocket: Long March 4B

Launch pad: Launch Complex 7

Location: Taiyuan Satellite Launch Center, People's Republic of China

...

Latest news about this satellite

There are no fresh news available about this satellite. Check back as we update our databases every day.


Newsletter sign-up

Weekly statistics, charts and insights to help you stay on top of the space industry.